sat.trackr.live / text

‹ back to catalog

NIMIQ 4

NORAD 33373 · 2008-044A

PAYLOAD ACTIVE UNKNOWN

§ Identity

Operator
Country
CA
Launch date
2008-09-19
Launch site
TYMSC
Launch vehicle
Mass (kg)
RCS (m²)
10.01

Purposes: comms

External: N2YO · Heavens-Above · Gunter

§ Orbital elements

Epoch: 2026-09-20T04:35:38.726016Z

Period
1,436.13 min
Inclination
0.0325°
Eccentricity
0.0001948
Mean motion
1.00269755 rev/d
Perigee alt
35,779.0 km
Apogee alt
35,795.4 km
Semi-major
42,165.3 km
B*
0.0000e+0
RAAN
96.9429°
Arg perigee
91.3299°
Mean anomaly
157.7264°
Rev number
6,593

§ Raw data

NIMIQ 41 33373U 08044A   26263.19142044 -.00000224  00000+0  00000+0 0  99962 33373   0.0325  96.9429 0001948  91.3299 157.7264  1.00269755 65935

JSON: /api/v1/satellites/33373 · /tle

For live sub-satellite position, see the globe view (requires WebGL).

§ Visibility from observer

Set your observer location to see the next 7 days of passes ≥ 10°. The values pass through the URL so the page stays shareable.

No JS? Fill the form by hand. The geolocation button needs JavaScript.